TimeCDT,TemperatureF,Dew PointF,Humidity,Sea Level PressureIn,VisibilityMPH,Wind Direction,Wind SpeedMPH,Gust SpeedMPH,PrecipitationIn,Events,Conditions,WindDirDegrees,DateUTC
12:15 AM,32.0,19.4,60,30.24,10.0,Calm,Calm,-,N/A,,Overcast,0,2012-10-07 05:15:00
12:35 AM,32.0,19.4,60,30.24,10.0,Calm,Calm,-,N/A,,Overcast,0,2012-10-07 05:35:00
12:55 AM,30.2,19.4,64,30.24,10.0,Calm,Calm,-,N/A,,Mostly Cloudy,0,2012-10-07 05:55:00
1:15 AM,30.2,19.4,64,30.24,10.0,WNW,3.5,-,N/A,,Scattered Clouds,300,2012-10-07 06:15:00
1:35 AM,28.4,19.4,69,30.24,10.0,West,3.5,-,N/A,,Clear,280,2012-10-07 06:35:00
1:55 AM,26.6,17.6,69,30.24,10.0,Calm,Calm,-,N/A,,Clear,0,2012-10-07 06:55:00
2:15 AM,26.6,19.4,74,30.24,10.0,Calm,Calm,-,N/A,,Clear,0,2012-10-07 07:15:00
2:35 AM,26.6,19.4,74,30.24,10.0,West,3.5,-,N/A,,Clear,280,2012-10-07 07:35:00
2:55 AM,26.6,17.6,69,30.23,10.0,Calm,Calm,-,N/A,,Clear,0,2012-10-07 07:55:00
3:15 AM,24.8,17.6,74,30.23,10.0,Calm,Calm,-,N/A,,Clear,0,2012-10-07 08:15:00
3:35 AM,24.8,17.6,74,30.23,10.0,Calm,Calm,-,N/A,,Clear,0,2012-10-07 08:35:00
3:55 AM,23.0,17.6,80,30.22,10.0,Calm,Calm,-,N/A,,Clear,0,2012-10-07 08:55:00
4:15 AM,21.2,15.8,80,30.22,10.0,Calm,Calm,-,N/A,,Clear,0,2012-10-07 09:15:00
4:35 AM,21.2,17.6,86,30.22,10.0,Calm,Calm,-,N/A,,Clear,0,2012-10-07 09:35:00
4:55 AM,21.2,17.6,86,30.21,10.0,Calm,Calm,-,N/A,,Clear,0,2012-10-07 09:55:00
5:15 AM,21.2,17.6,86,30.21,10.0,Calm,Calm,-,N/A,,Clear,0,2012-10-07 10:15:00
5:35 AM,19.4,15.8,86,30.21,10.0,Calm,Calm,-,N/A,,Clear,0,2012-10-07 10:35:00
5:55 AM,19.4,15.8,86,30.20,10.0,Calm,Calm,-,N/A,,Clear,0,2012-10-07 10:55:00
6:15 AM,19.4,15.8,86,30.20,10.0,Calm,Calm,-,N/A,,Clear,0,2012-10-07 11:15:00
6:35 AM,19.4,15.8,86,30.20,10.0,Calm,Calm,-,N/A,,Clear,0,2012-10-07 11:35:00
6:55 AM,17.6,14.0,86,30.21,10.0,Calm,Calm,-,N/A,,Clear,0,2012-10-07 11:55:00
7:15 AM,17.6,12.2,79,30.21,10.0,Calm,Calm,-,N/A,,Clear,0,2012-10-07 12:15:00
7:35 AM,15.8,12.2,86,30.21,10.0,Calm,Calm,-,N/A,,Clear,0,2012-10-07 12:35:00
7:55 AM,17.6,14.0,86,30.21,10.0,Calm,Calm,-,N/A,,Clear,0,2012-10-07 12:55:00
8:15 AM,21.2,17.6,86,30.21,10.0,Calm,Calm,-,N/A,,Clear,0,2012-10-07 13:15:00
8:35 AM,24.8,19.4,80,30.21,10.0,Calm,Calm,-,N/A,,Clear,0,2012-10-07 13:35:00
8:55 AM,28.4,21.2,74,30.21,10.0,Calm,Calm,-,N/A,,Clear,0,2012-10-07 13:55:00
9:15 AM,32.0,23.0,69,30.21,10.0,SW,3.5,-,N/A,,Clear,230,2012-10-07 14:15:00
9:35 AM,33.8,23.0,65,30.21,10.0,SW,5.8,-,N/A,,Clear,230,2012-10-07 14:35:00
9:55 AM,35.6,23.0,60,30.21,10.0,SW,6.9,-,N/A,,Clear,230,2012-10-07 14:55:00
10:15 AM,37.4,21.2,52,30.20,10.0,SW,10.4,-,N/A,,Clear,230,2012-10-07 15:15:00
10:35 AM,39.2,21.2,49,30.20,10.0,SW,10.4,-,N/A,,Clear,220,2012-10-07 15:35:00
10:55 AM,41.0,19.4,42,30.19,10.0,SW,12.7,-,N/A,,Clear,230,2012-10-07 15:55:00
11:15 AM,42.8,19.4,39,30.19,10.0,SW,10.4,-,N/A,,Clear,220,2012-10-07 16:15:00
11:35 AM,42.8,19.4,39,30.18,10.0,WSW,11.5,16.1,N/A,,Clear,240,2012-10-07 16:35:00
11:55 AM,44.6,17.6,34,30.18,10.0,WSW,10.4,-,N/A,,Clear,240,2012-10-07 16:55:00
12:15 PM,44.6,15.8,31,30.17,10.0,West,9.2,-,N/A,,Clear,260,2012-10-07 17:15:00
12:35 PM,44.6,14.0,29,30.16,10.0,SW,12.7,19.6,N/A,,Clear,230,2012-10-07 17:35:00
12:55 PM,46.4,14.0,27,30.15,10.0,WSW,10.4,-,N/A,,Clear,250,2012-10-07 17:55:00
1:15 PM,46.4,14.0,27,30.13,10.0,SW,9.2,19.6,N/A,,Clear,220,2012-10-07 18:15:00
1:35 PM,48.2,14.0,25,30.12,10.0,SW,10.4,18.4,N/A,,Clear,230,2012-10-07 18:35:00
1:55 PM,48.2,14.0,25,30.10,10.0,WSW,9.2,17.3,N/A,,Clear,240,2012-10-07 18:55:00
2:15 PM,50.0,12.2,22,30.09,10.0,WSW,8.1,18.4,N/A,,Clear,250,2012-10-07 19:15:00
2:35 PM,50.0,12.2,22,30.08,10.0,SW,11.5,16.1,N/A,,Clear,220,2012-10-07 19:35:00
2:55 PM,51.8,12.2,21,30.06,10.0,SW,16.1,24.2,N/A,,Clear,220,2012-10-07 19:55:00
3:15 PM,51.8,12.2,21,30.06,10.0,WNW,8.1,-,N/A,,Clear,300,2012-10-07 20:15:00
3:35 PM,51.8,12.2,21,30.05,10.0,NW,11.5,18.4,N/A,,Clear,320,2012-10-07 20:35:00
3:55 PM,51.8,10.4,19,30.04,10.0,SW,11.5,18.4,N/A,,Clear,230,2012-10-07 20:55:00
4:15 PM,51.8,12.2,21,30.03,10.0,WSW,12.7,20.7,N/A,,Clear,250,2012-10-07 21:15:00
4:35 PM,51.8,12.2,21,30.02,10.0,West,11.5,23.0,N/A,,Clear,260,2012-10-07 21:35:00
4:55 PM,51.8,14.0,22,30.01,10.0,WSW,9.2,-,N/A,,Clear,250,2012-10-07 21:55:00
5:15 PM,51.8,14.0,22,30.01,10.0,SW,13.8,18.4,N/A,,Clear,230,2012-10-07 22:15:00
5:35 PM,51.8,14.0,22,30.00,10.0,SW,12.7,19.6,N/A,,Clear,220,2012-10-07 22:35:00
5:55 PM,51.8,15.8,24,30.00,10.0,SW,11.5,18.4,N/A,,Clear,230,2012-10-07 22:55:00
6:15 PM,50.0,15.8,26,30.00,10.0,SW,9.2,-,N/A,,Clear,220,2012-10-07 23:15:00
6:35 PM,48.2,15.8,27,29.99,10.0,SW,9.2,-,N/A,,Clear,220,2012-10-07 23:35:00
6:55 PM,46.4,17.6,32,29.99,10.0,SSW,6.9,-,N/A,,Clear,210,2012-10-07 23:55:00
7:15 PM,42.8,17.6,36,29.99,10.0,SSW,8.1,-,N/A,,Clear,200,2012-10-08 00:15:00
7:55 PM,41.0,17.6,39,29.99,10.0,South,9.2,-,N/A,,Clear,180,2012-10-08 00:55:00
8:15 PM,37.4,17.6,45,29.99,10.0,South,8.1,-,N/A,,Clear,180,2012-10-08 01:15:00
8:55 PM,35.6,17.6,48,29.98,10.0,South,10.4,-,N/A,,Clear,170,2012-10-08 01:55:00
9:15 PM,35.6,17.6,48,29.98,10.0,South,9.2,-,N/A,,Clear,170,2012-10-08 02:15:00
9:35 PM,35.6,19.4,52,29.98,10.0,South,9.2,-,N/A,,Clear,170,2012-10-08 02:35:00
9:55 PM,37.4,19.4,48,29.98,10.0,South,9.2,-,N/A,,Clear,170,2012-10-08 02:55:00
10:15 PM,37.4,21.2,52,29.98,10.0,South,8.1,-,N/A,,Clear,180,2012-10-08 03:15:00
10:35 PM,41.0,21.2,45,29.97,10.0,South,9.2,-,N/A,,Clear,190,2012-10-08 03:35:00
10:55 PM,41.0,21.2,45,29.96,10.0,South,11.5,-,N/A,,Clear,190,2012-10-08 03:55:00
11:15 PM,41.0,21.2,45,29.96,10.0,SSW,11.5,-,N/A,,Clear,200,2012-10-08 04:15:00
11:35 PM,41.0,21.2,45,29.96,10.0,SSW,11.5,-,N/A,,Clear,200,2012-10-08 04:35:00
11:55 PM,39.2,21.2,49,29.95,10.0,SSW,10.4,-,N/A,,Clear,200,2012-10-08 04:55:00